User: anonymous   Login
Location: Brookview Estates
(36.0476°N, 86.6931°W)
Time: 10:57:15
(UTC+00:00)
Language:

CZ-4B R/B - Orbit

View from above orbital plane
View from above orbital plane
View from above satellite
View from above satellite

Ground track
Ground track

The orbit data is extracted from the following two-line orbital elements,

1 29093U 06015B   20185.01772015  .00001451  00000-0  30259-4 0  9998
2 29093  97.6220 352.3924 0052071 265.0942  94.4360 15.46088015788997
Epoch (UTC): 03 July 2020 00:25:31
Eccentricity: 0.0052071
inclination: 97.6220°
perigee height: 393 km
apogee height: 463 km
right ascension of ascending node: 352.3924°
argument of perigee: 265.0942°
revolutions per day: 15.46088015
mean anomaly at epoch: 94.4360°
orbit number at epoch: 78899

The dashed part of the orbit path shows where the satellite is in the earth's shadow,  

DLR